Location: Brno
(49.2000°N, 16.6333°E)
Time: 13:00:42
(UTC+01:00)

ISS - Pass Details

Date: 31 January 2019
Orbit: 403 x 411 km, 51.6° (Epoch: 21 February)

Event Time Altitude Azimuth Distance (km) Brightness Sun altitude
Rises 18:10:33 0° 273° (W) 2,334 1.7 -13.6°
Reaches altitude 10° 18:12:40 10° 278° (W) 1,475 0.2 -13.9°
Maximum altitude 18:15:54 54° 357° (N) 508 -3.4 -14.5°
Enters shadow 18:17:14 30° 60° (ENE) 761 -3.0 -14.7°
